• MPC Preparation (Info)

  • MPEC 2023-K58 : 2023 JN5

    The following Minor Planet Electronic Circular may be linked-to from your own Web pages, but must not otherwise be redistributed electronically.

    A form allowing access to any MPEC is at the bottom of this page.


    Read MPEC 2023-K57 Read MPEC 2023-K59


    M.P.E.C. 2023-K58                                  Issued 2023 May 20, 16:01 UT
    
         The Minor Planet Electronic Circulars contain information on unusual
             minor planets, routine data on comets and natural satellites,
             and occasional editorial announcements.  They are published
        on behalf of Division F of the International Astronomical Union by the
              Minor Planet Center, Smithsonian Astrophysical Observatory,
                              Cambridge, MA 02138, U.S.A.
    			  
                 Prepared using the Tamkin Foundation Computer Network
    
                                  MPC@CFA.HARVARD.EDU
                URL https://www.minorplanetcenter.net/    ISSN 1523-6714
    
                                    2023 JN5                                 
    
    
    Observations:
         K23J05N* C2023 05 15.45926816 54 30.136+07 43 20.03         21.11GVEK058V00
         K23J05N  C2023 05 15.46313716 54 27.976+07 42 57.64         21.23GVEK058V00
         K23J05N  C2023 05 15.46706916 54 25.830+07 42 35.14         21.38GVEK058V00
         K23J05N  C2023 05 15.47092516 54 23.670+07 42 13.25               VEK058V00
         K23J05N mC2023 05 15.47984016 54 18.785+07 41 21.84         21.60GVEK058V00
         K23J05N mC2023 05 15.48039116 54 18.468+07 41 18.67         21.39GVEK058V00
         K23J05N mC2023 05 15.48094216 54 18.169+07 41 15.50         21.47GVEK058V00
         K23J05N mC2023 05 15.48149216 54 17.860+07 41 12.05         21.38GVEK058V00
         K23J05N mC2023 05 16.38242016 46 40.400+06 17 53.66         21.81GVEK058V00
         K23J05N mC2023 05 16.38297316 46 40.094+06 17 49.67         21.61GVEK058V00
         K23J05N mC2023 05 16.38352616 46 39.864+06 17 47.00         21.43GVEK058V00
         K23J05N mC2023 05 16.38407616 46 39.558+06 17 44.34         21.83GVEK058V00
         K23J05N  C2023 05 16.45866116 46 04.345+06 11 17.24         20.60GVEK058F51
         K23J05N  C2023 05 16.47046816 45 58.210+06 10 13.77         21.27GVEK058F51
         K23J05N  C2023 05 16.48231716 45 52.097+06 09 10.48         21.23GVEK058F51
         K23J05N KC2023 05 19.27608016 25 31.08 +02 21 31.4          21.9 VuEK058H21
         K23J05N KC2023 05 19.27955916 25 29.65 +02 21 15.9          21.5 VuEK058H21
         K23J05N KC2023 05 19.28341116 25 28.07 +02 20 58.9          21.5 VuEK058H21
         K23J05N KC2023 05 20.27072 16 19 19.66 +01 10 41.4          21.3 GVEK058291
         K23J05N KC2023 05 20.27793 16 19 16.92 +01 10 11.7          21.3 GVEK058291
         K23J05N KC2023 05 20.28514 16 19 14.18 +01 09 42.0          21.0 GVEK058291
    
    Observer details:
    291 LPL/Spacewatch II.  Observer A. F. Tubbiolo.  1.8-m f/2.7 reflector + CCD.
    F51 Pan-STARRS 1, Haleakala.  Observers J. Bulger, K. Chambers, T. Lowe, A.
        Schultz, I. Smith.  Measurers S. Chastel, J. Fairlamb, M. Huber, Y.
        Ramanjooloo, R. Wainscoat, R. Weryk.  1.8-m Ritchey-Chretien + CCD.
    H21 Astronomical Research Observatory, Westfield.  Observer R. Holmes.
        Measurers T. Linder, R. Holmes, L. Horn.  1.3-m f/4.0 astrograph + CCD.
    V00 Kitt Peak-Bok.  Observer H. Groeller.  Measurers M. J. Brucker, E. J.
        Christensen, C. E. Woodward, D. Fay, J. B. Fazekas, D. C. Fuls, A. R.
        Gibbs, A. D. Grauer, H. Groeller, J. K. Hogan, R. A. Kowalski, S. M.
        Larson, G. J. Leonard, R. S. McMillan, D. Rankin, R. L. Seaman, A.
        Serrano, F. C. Shelly, K. W. Wierzchos.  2.25-m reflector + 4x4K mosaic
        CCD.
    
    Orbital elements:
    2023 JN5                                                 Earth MOID = 0.0669 AU
    Epoch 2023 Feb. 25.0 TT = JDT 2460000.5                 Bell                    
    M 357.32160              (2000.0)            P               Q                  
    n   0.82541366     Peri.   35.85093     -0.52580788     -0.84469044             
    a   1.1255245      Node    86.07063     +0.75516794     -0.51773948             
    e   0.4324210      Incl.    5.75970     +0.39146833     -0.13580827             
    P   1.19           H   24.79          G   0.15           U   9                  
    Residuals in seconds of arc
    230515 V00  0.3+  0.7+    230515 V00  0.3+  0.4+    230516 F51  0.1+  0.2+
    230515 V00  0.1+  0.5+    230516 V00  0.1-  0.4+    230519 H21  0.1+  0.3+
    230515 V00  0.5+  0.6+    230516 V00  0.4-  0.6-    230519 H21  0.2+  0.2+
    230515 V00  0.0   0.9+    230516 V00  0.5+  0.3-    230519 H21  0.2+  0.2+
    230515 V00  0.5+  0.7+    230516 V00  0.2+  0.0     230520 291  0.8-  1.0-
    230515 V00  0.3+  0.7+    230516 F51  0.0   0.2+    230520 291  0.6-  0.9-
    230515 V00  0.4+  0.7+    230516 F51  0.3-  0.0     230520 291  0.4-  0.8-
    
    Ephemeris:
    2023 JN5                 a,e,i = 1.13, 0.43, 6                   q = 0.6388
    Date    TT    R. A. (2000) Decl.     Delta      r    Elong.  Phase     V
    2023 04 20    23 17 49.0 +35 05 31   0.1269  0.9137    41.8   132.9    26.1
    ...
    2023 05 05    19 14 37.6 +27 48 47   0.08586 1.0290   101.6    73.7    22.1
    ...
    2023 05 13    17 18 34.6 +11 56 11   0.1026  1.0881   137.5    38.8    21.6
    ...
    2023 05 19    16 27 20.3 +02 42 49   0.1301  1.1307   154.9    22.3    21.7
    2023 05 20    16 20 57.2 +01 30 08   0.1355  1.1377   156.9    20.4    21.7
    2023 05 21    16 15 03.5 +00 22 20   0.1412  1.1446   158.6    18.8    21.8
    ...
    2023 05 27    15 47 57.1 -04 59 58   0.1789  1.1851   162.7    14.7    22.2
    ...
    2023 06 04    15 26 55.0 -09 38 01   0.2371  1.2364   157.3    18.5    23.1
    ...
    2023 06 19    15 12 15.1 -14 40 00   0.3648  1.3238   142.4    27.9    24.4
    
    M. P. C. Staff               (C) Copyright 2023 MPC           M.P.E.C. 2023-K58
    


    Read MPEC 2023-K57 Read MPEC 2023-K59


    MPEC number:

    Enter an MPEC number in one of the following forms:

    • 1997-B01 (the full form)
    • J97B01 (the packed version of the full form)
    • B01 (the abbreviated form)